GFSGL_sfc_30mbdewp_000.txt.gz
Dewpoint
36 35 34 34 32 32 32 33 34 34 32 31 30 31 33 35 37 36 33 31 26 25 24 23 22 22 21 19 19 19 19 18 16 15 16 16 18 20 22 23 22 22 24
34 33 33 33 32 32 33 34 34 34 34 33 35 36 36 36 32 30 28 25 22 20 21 21 19 15 17 18 18 19 19 19 18 17 17 17 18 19 21 22 22 21 21
33 32 31 34 34 34 35 35 36 36 36 37 36 35 34 32 30 26 22 21 21 22 20 19 18 19 19 18 19 19 18 17 17 17 16 17 17 18 18 20 21 22 22
33 32 32 34 36 36 37 34 33 31 30 29 27 26 26 24 22 20 19 20 19 18 19 20 19 19 19 18 17 17 16 15 15 14 14 14 15 16 16 17 17 19 20
33 31 30 29 29 27 26 26 24 23 19 18 17 18 18 18 16 22 18 19 19 19 20 20 19 20 22 22 20 17 16 15 15 15 15 15 16 16 16 17 18 19 20
31 29 26 26 24 22 21 20 17 16 16 17 17 17 18 17 25 26 25 21 19 18 17 17 18 19 18 20 21 21 23 21 19 18 17 18 18 18 19 19 20 20 19
28 25 26 26 21 19 17 14 15 16 17 17 17 19 19 19 22 22 22 19 17 17 18 17 16 14 16 17 19 22 22 22 23 22 21 21 20 21 21 22 22 21 19
27 25 26 22 19 16 15 15 15 16 16 17 18 18 18 17 20 21 20 18 18 18 18 17 16 15 16 20 20 20 20 21 22 23 22 20 20 20 21 21 21 23 24
25 26 26 21 20 15 15 15 16 17 17 17 18 18 18 18 20 19 19 18 18 18 17 17 18 21 21 22 22 24 22 21 22 24 23 23 24 25 25 23 26 23 24
26 29 24 22 18 15 16 17 18 17 17 19 21 21 20 19 19 18 18 18 19 20 21 21 22 22 22 23 25 25 22 19 20 23 23 28 28 24 26 25 25 23 22
24 25 24 22 17 17 17 18 19 18 20 24 25 23 22 20 17 18 18 20 21 21 19 20 21 26 25 24 22 22 21 23 20 20 21 22 22 24 26 27 27 27 24
25 25 24 20 18 18 18 19 19 19 20 23 23 21 17 19 16 18 18 20 22 22 21 23 27 22 22 20 19 20 20 21 21 23 23 22 22 22 23 25 25 25 27
23 22 22 20 19 20 19 20 19 19 22 20 16 15 14 14 15 19 21 21 20 21 25 24 21 21 20 19 21 19 21 23 22 22 22 23 25 26 28 29 28 27 26
21 21 21 20 21 21 21 20 18 19 20 16 14 13 14 14 15 18 19 19 22 23 22 25 22 21 22 22 21 21 21 21 20 21 21 23 25 27 29 29 28 29 28
19 20 21 22 23 22 20 18 18 20 18 15 14 14 15 15 17 20 20 19 20 20 21 21 19 18 19 18 17 18 18 19 20 20 21 22 23 24 27 27 27 28 27
21 21 23 25 25 23 19 18 20 18 18 16 16 16 15 15 17 19 19 19 18 19 19 16 16 16 17 16 15 16 18 18 18 20 21 22 22 23 24 28 25 25 26
26 26 25 25 23 21 20 20 18 17 18 17 16 14 14 14 16 16 17 17 17 17 15 15 15 15 16 13 15 16 16 17 19 19 21 21 21 22 24 26 27 27 25
27 26 25 24 23 22 22 20 19 17 16 15 16 13 13 13 13 14 14 16 14 14 13 13 13 14 12 11 13 14 16 17 17 18 19 19 20 21 21 22 24 25 27
25 24 26 25 24 22 22 20 19 17 15 15 12 10 13 13 14 14 14 13 12 12 12 12 12 12 12 12 13 14 17 17 17 19 18 19 20 21 20 20 22 24 25
22 24 24 24 23 21 20 19 17 16 14 14 12 12 12 13 12 12 12 11 8 6 8 8 10 11 12 13 13 14 13 16 16 16 18 19 19 21 19 19 19 21 21
22 22 23 22 21 20 20 18 17 16 15 14 12 14 12 12 12 12 9 8 7 7 8 8 9 11 11 12 12 13 12 13 15 15 17 18 20 19 19 19 19 19 18
23 24 23 22 21 20 20 19 18 17 15 14 13 13 13 13 12 11 9 9 9 8 8 8 9 9 11 11 12 12 12 12 13 14 15 18 18 19 20 18 18 19 17
24 25 23 21 22 21 21 20 19 18 17 16 15 12 13 13 12 12 11 10 9 9 9 8 9 8 8 10 10 11 11 12 13 13 13 14 15 16 19 18 16 17 16
23 25 23 23 22 21 21 20 20 19 18 16 16 14 13 13 13 13 13 13 10 10 9 9 8 8 8 8 9 8 9 10 12 12 13 12 12 14 15 14 16 15 17
24 25 25 24 22 21 21 21 20 21 19 18 17 15 13 13 11 12 13 13 12 10 8 9 9 8 8 7 8 8 8 8 8 8 12 11 11 11 12 12 13 13 13
24 24 24 24 24 23 21 20 20 20 19 19 17 16 14 13 12 12 12 11 11 10 8 8 8 8 8 7 6 7 7 7 8 8 10 9 9 9 10 10 10 11 11

GFSGL_sfc_30mbdewp_003.txt.gz
Dewpoint
35 34 34 33 32 31 30 31 33 35 34 36 37 37 37 36 36 36 33 32 33 33 30 29 26 26 24 21 22 22 20 20 19 19 18 19 21 22 21 25 25 26 27
34 33 31 30 31 30 31 33 33 34 35 36 36 36 36 37 36 34 33 28 26 25 26 25 25 24 23 20 19 18 18 17 17 17 17 19 20 22 24 25 22 21 23
34 31 29 29 29 31 31 31 31 30 30 29 29 29 27 27 25 22 22 24 24 23 22 21 20 19 18 19 19 19 17 17 17 16 16 17 18 19 19 21 22 24 21
32 30 28 28 28 27 27 26 24 23 21 18 17 17 17 17 16 17 17 18 17 16 17 18 18 18 19 19 19 18 17 17 15 16 15 15 16 16 17 18 19 21 21
33 31 28 26 25 23 22 22 20 18 16 15 15 16 16 16 18 22 21 20 19 18 18 17 18 19 22 21 19 18 18 18 17 15 16 16 16 16 16 18 19 21 22
32 29 26 25 25 22 20 18 15 14 14 16 16 16 16 16 24 24 23 19 17 16 16 16 16 18 19 23 24 25 23 17 17 18 17 17 17 19 19 19 20 20 20
29 27 24 24 26 21 19 14 13 14 15 16 16 16 17 18 22 22 22 19 18 16 16 17 17 16 17 16 17 20 22 24 24 21 19 19 19 19 21 22 22 22 22
25 25 24 26 25 22 18 15 14 15 15 16 16 18 19 18 23 22 20 18 16 16 16 17 17 17 17 19 21 20 19 19 21 22 22 21 21 21 21 22 22 23 25
24 25 26 26 28 22 17 15 15 15 16 16 17 19 21 21 21 23 19 17 18 17 17 17 20 19 18 20 21 21 21 20 21 23 24 24 24 25 25 25 26 27 25
22 20 23 24 25 23 17 15 15 15 16 20 22 22 22 21 24 19 20 19 19 19 20 18 20 21 23 23 23 24 23 22 21 24 24 26 31 30 27 25 22 22 23
20 21 24 25 23 19 15 15 15 16 19 25 27 25 22 23 20 19 20 19 20 22 20 21 22 25 24 24 23 22 21 23 21 20 20 20 20 21 23 29 26 25 24
24 24 22 21 19 14 16 15 16 17 20 22 24 23 20 21 19 19 20 19 22 21 20 22 26 21 20 20 20 20 22 20 21 23 23 23 24 22 21 23 26 31 30
28 26 21 18 15 15 16 15 15 16 20 21 17 17 16 17 17 16 18 20 20 22 24 21 24 22 22 22 25 21 21 23 25 22 23 24 26 28 28 29 30 31 31
24 20 18 17 20 19 17 15 15 19 20 17 14 14 15 16 14 17 18 19 20 20 21 22 23 23 23 25 24 24 24 23 21 23 23 24 25 28 30 31 30 28 29
23 19 20 20 20 20 18 17 18 20 18 15 14 14 16 14 15 17 19 19 19 19 20 21 19 18 19 21 19 20 21 20 21 22 23 23 24 25 26 30 26 27 28
22 20 22 24 22 21 19 18 20 19 17 16 16 16 15 14 15 16 17 18 18 19 19 17 17 17 18 19 18 18 19 19 19 20 21 23 23 24 25 29 27 25 24
26 25 23 23 22 21 21 21 20 20 20 18 17 15 13 13 13 14 15 16 19 16 16 16 15 16 14 11 14 15 15 18 19 20 21 22 22 23 25 26 26 28 26
27 25 26 25 24 23 23 23 21 20 19 17 21 15 14 15 13 13 13 16 14 15 14 15 13 12 11 10 12 15 17 18 19 20 21 21 21 23 24 23 25 23 23
22 23 26 26 26 24 24 23 22 20 18 16 16 13 13 14 19 17 14 14 13 11 10 8 10 10 12 13 14 16 18 18 18 19 20 21 21 22 22 21 22 23 22
20 23 24 25 25 24 23 22 20 19 17 16 17 15 13 13 15 15 14 11 9 8 8 8 9 11 13 13 13 15 16 16 17 17 18 21 22 21 22 21 21 21 21
21 23 24 23 25 22 21 22 20 20 18 16 17 18 13 13 14 14 13 11 9 9 9 9 10 11 11 11 11 13 14 14 14 15 16 19 21 20 21 21 21 21 19
22 26 25 25 23 24 23 20 21 20 20 18 17 16 16 18 15 15 14 12 11 10 9 10 10 9 10 11 11 11 11 12 12 14 15 16 18 18 20 21 19 20 19
25 26 26 25 24 23 23 23 23 22 21 20 18 17 16 14 14 15 16 16 13 11 11 10 10 9 9 10 11 10 9 10 11 13 14 15 14 14 16 16 18 16 17
25 25 25 26 25 23 23 23 23 23 22 21 21 20 17 15 14 14 16 16 15 13 11 11 10 9 9 9 10 9 8 9 10 9 13 14 12 12 13 13 14 14 13
26 26 25 25 25 24 23 23 23 23 23 22 22 21 18 16 14 14 14 14 14 13 11 10 10 9 9 9 8 8 8 8 9 10 13 12 11 11 12 11 11 13 12
25 25 26 26 25 26 25 23 23 23 23 23 22 21 19 16 15 14 14 13 12 11 11 9 10 9 9 8 8 8 7 7 7 9 12 10 9 9 9 10 10 10 9

GFSGL_sfc_30mbdewp_006.txt.gz
Dewpoint
38 36 35 35 34 34 34 35 35 34 34 34 34 34 35 35 37 37 36 35 32 30 31 31 31 31 31 31 29 27 25 26 25 23 24 24 24 27 26 25 27 32 34
38 36 34 33 32 32 33 31 31 31 33 32 31 30 31 31 33 32 34 33 31 30 28 27 27 26 26 24 24 24 23 23 22 20 21 21 21 22 23 25 26 24 27
37 35 33 31 30 30 29 29 29 29 29 26 23 22 21 21 21 20 20 23 23 21 21 22 22 22 22 22 22 22 22 22 22 21 20 20 20 21 20 22 22 24 25
36 34 32 31 28 27 28 26 25 25 22 20 20 20 21 20 19 22 22 23 22 21 21 20 21 21 22 23 23 23 22 21 20 20 19 19 19 20 20 18 19 21 21
36 33 33 30 27 27 27 25 24 22 20 19 19 20 21 20 22 23 23 21 21 20 20 19 19 21 23 23 20 21 20 20 19 19 19 19 19 19 20 23 24 24 25
30 31 31 30 27 27 27 25 22 20 19 20 20 20 20 19 24 24 24 22 21 20 19 18 19 20 20 21 21 22 21 19 18 18 17 18 18 19 22 22 23 23 22
28 28 32 35 33 32 28 24 21 19 20 21 21 21 21 23 24 25 23 21 20 18 18 18 18 18 21 21 24 25 23 27 26 23 21 21 20 19 20 21 22 23 24
22 28 33 33 32 29 28 27 23 20 20 20 22 22 22 22 23 24 24 21 19 18 19 18 18 19 22 22 22 23 23 22 23 24 24 25 24 23 23 25 25 25 25
19 29 30 33 28 29 28 27 22 19 20 22 24 25 25 24 24 28 26 22 21 19 19 20 21 20 20 20 22 22 23 22 22 23 24 26 26 26 27 26 24 24 24
30 30 28 26 27 28 28 25 20 20 21 26 27 26 26 24 26 24 23 22 20 20 21 20 19 22 26 25 25 26 24 24 23 24 23 22 21 26 29 30 27 23 20
28 29 31 30 27 24 23 19 20 20 23 26 26 26 25 24 23 21 23 22 21 21 19 19 21 27 25 22 21 22 22 22 23 22 21 20 21 22 23 23 28 28 24
30 29 29 27 25 20 19 20 19 20 24 23 22 22 22 22 20 20 22 18 19 21 20 23 23 23 22 21 22 23 24 22 21 21 22 23 25 25 25 24 24 28 31
28 25 25 23 21 21 19 18 18 21 22 21 19 18 18 19 18 19 17 16 18 21 22 22 23 23 22 23 24 23 24 23 23 23 23 24 26 27 27 27 29 30 31
24 24 24 22 21 21 20 19 20 22 22 20 18 17 17 17 16 17 19 19 18 19 20 21 23 21 22 24 24 23 24 25 23 24 23 25 27 27 28 29 30 29 29
25 24 24 26 25 23 21 21 21 23 19 18 18 17 17 16 15 15 17 19 20 20 20 20 19 18 19 20 19 21 22 22 22 22 23 24 24 25 25 26 28 27 26
27 26 26 25 25 23 22 22 22 20 19 18 16 17 17 16 15 14 15 15 19 19 19 17 16 17 17 18 19 19 20 21 21 22 22 23 23 23 24 25 29 29 26
27 26 25 25 26 25 24 24 23 23 22 21 19 19 17 16 16 14 14 15 19 18 16 16 16 14 14 14 15 17 18 21 20 21 22 22 22 23 25 25 25 25 24
27 25 26 28 28 26 23 23 24 23 22 21 23 21 15 15 15 17 16 14 15 15 15 15 13 13 14 14 15 16 18 19 19 19 21 22 22 23 24 23 23 24 25
26 23 25 25 27 26 24 25 25 24 22 21 19 19 16 14 16 19 16 14 12 11 11 11 12 14 14 14 15 16 17 19 18 18 19 21 23 23 22 22 23 22 23
25 22 23 23 27 27 26 24 23 24 22 21 19 20 17 13 17 17 16 15 12 11 12 12 13 14 14 14 14 15 16 16 16 16 16 18 21 23 22 22 22 22 22
24 25 25 24 24 27 24 24 25 24 23 22 20 20 14 13 17 17 16 16 13 12 12 13 13 13 13 13 13 13 13 13 13 14 15 16 19 19 21 22 21 22 20
24 23 27 28 27 26 26 23 23 24 24 23 23 21 17 17 18 16 17 17 16 13 13 12 13 12 13 12 14 13 11 10 10 12 12 14 17 16 18 19 19 18 20
24 25 25 27 27 27 24 25 25 25 25 23 22 22 21 20 17 17 17 17 18 16 14 12 12 12 11 12 13 12 11 11 11 11 11 12 16 14 15 16 16 17 14
24 26 26 26 26 27 25 25 26 24 24 24 23 23 22 21 17 17 16 18 17 16 15 12 12 11 11 11 11 11 10 10 10 11 11 13 14 13 13 14 12 14 13
26 27 27 26 26 26 26 25 25 25 25 25 25 24 23 21 20 17 17 16 15 14 14 11 12 12 11 10 10 10 9 9 8 8 10 13 11 11 10 13 10 13 11
28 24 25 27 27 26 26 27 25 24 25 24 25 24 24 23 20 18 17 15 15 13 12 12 10 11 10 11 10 10 8 8 8 8 9 12 11 10 9 10 10 10 10

GFSGL_sfc_30mbdewp_009.txt.gz
Dewpoint
38 37 35 35 33 34 34 32 32 31 31 32 33 33 32 32 32 33 33 34 33 32 31 29 26 26 28 33 34 32 29 30 30 27 24 24 23 23 23 31 35 36 37
38 37 35 34 31 31 30 31 30 29 31 31 29 23 23 22 22 23 26 27 24 22 22 22 22 22 22 24 25 24 24 23 23 23 22 22 22 23 22 20 23 21 31
37 37 35 34 30 29 27 29 28 26 25 22 21 21 21 22 22 23 23 24 23 22 22 21 20 20 20 21 24 24 24 24 22 21 20 21 21 22 21 22 21 21 22
37 37 37 38 34 29 30 28 25 24 21 21 20 20 21 22 23 22 22 22 21 21 22 22 21 19 20 21 22 22 23 23 22 20 20 19 20 21 23 23 23 25 24
35 34 34 36 34 35 33 30 29 24 22 20 19 21 22 23 23 24 23 22 21 21 21 20 18 19 19 22 23 23 23 23 21 19 19 18 18 19 20 23 23 23 24
21 22 33 36 35 35 35 34 28 22 20 19 21 22 23 23 26 25 24 22 21 20 18 17 18 19 20 20 23 27 26 24 21 19 18 18 18 19 20 20 20 21 21
21 29 34 36 35 35 36 33 27 24 21 21 23 22 23 24 26 26 25 23 21 19 18 18 18 17 19 21 23 24 24 24 25 26 25 23 21 21 21 20 21 21 22
27 29 31 33 33 35 35 29 26 24 21 23 24 25 25 24 25 28 28 26 22 21 20 19 19 21 22 21 20 21 22 23 22 22 25 24 24 24 24 23 24 27 27
28 29 29 30 32 33 35 31 27 24 23 25 26 25 24 25 26 25 26 23 22 22 21 21 19 19 20 24 24 24 24 24 23 23 25 28 29 30 29 29 26 24 22
29 29 31 32 31 32 32 29 24 21 26 26 25 25 26 24 22 21 25 24 21 20 20 19 19 22 26 26 23 23 21 20 22 22 22 22 22 22 22 25 26 24 24
29 30 29 29 29 28 25 20 20 25 25 23 22 21 22 21 20 22 20 20 19 20 18 19 20 20 22 23 22 23 22 22 23 22 21 21 21 21 22 23 24 26 24
28 28 26 26 24 22 20 20 23 22 21 21 18 17 18 19 18 19 17 15 17 20 19 19 21 24 21 21 24 25 24 23 23 21 21 21 23 24 26 29 28 26 28
27 25 25 25 24 23 21 20 21 22 21 20 18 16 17 19 17 16 18 17 18 19 20 21 22 20 22 23 24 24 24 24 22 22 22 23 24 26 28 28 29 30 30
26 25 25 26 25 24 22 22 22 21 19 18 18 16 16 17 16 17 18 19 20 20 19 21 20 20 21 23 21 22 23 22 22 21 22 23 26 26 26 27 27 27 28
27 26 26 26 25 25 23 21 22 20 19 19 17 16 15 14 16 18 16 17 19 20 19 19 17 16 17 18 18 19 20 21 21 21 22 22 23 23 24 26 27 28 27
26 26 25 25 26 25 24 24 23 22 20 19 18 16 16 16 17 17 15 15 18 16 16 16 15 15 15 15 16 17 18 20 20 20 21 22 22 22 23 25 25 25 24
26 26 26 25 27 25 23 22 20 22 25 24 21 21 20 17 16 17 16 13 12 14 14 15 14 14 15 15 15 16 16 20 19 19 20 20 21 22 23 23 22 23 23
27 26 25 25 25 26 23 21 22 24 23 21 22 23 17 16 16 17 17 13 11 12 12 13 13 14 15 15 15 15 16 18 17 17 18 18 20 21 21 22 22 22 22
26 26 24 22 24 26 24 24 24 23 23 22 21 21 17 13 17 17 17 12 10 10 12 13 14 15 14 14 14 14 15 15 15 15 15 16 17 20 20 21 21 21 21
26 25 23 22 23 24 25 24 23 23 23 22 21 19 16 11 13 15 15 13 11 10 10 11 13 14 12 12 14 13 13 12 11 12 13 14 16 18 18 20 20 20 18
26 24 24 24 23 23 25 24 24 22 22 21 22 21 16 13 14 16 15 15 13 11 10 10 11 13 12 12 14 12 11 9 9 10 10 11 13 15 16 18 18 17 19
24 22 22 23 25 26 25 25 21 22 24 24 24 21 18 15 16 18 15 15 14 13 11 10 10 11 11 10 12 11 11 8 8 9 9 10 11 14 14 15 15 15 13
22 22 23 22 23 26 26 25 22 22 24 24 23 21 21 20 18 16 15 15 15 15 13 11 10 11 11 10 11 10 10 8 9 9 9 9 11 13 11 13 11 14 12
21 21 24 21 23 24 26 25 24 25 23 23 24 24 23 22 20 17 15 14 15 14 14 11 10 11 10 10 11 10 9 9 9 9 8 10 12 11 9 12 10 11 11
22 21 22 23 24 24 25 26 26 24 24 23 24 24 23 22 20 18 16 14 14 13 12 11 9 11 10 10 10 9 8 7 8 7 8 10 11 10 8 9 9 9 8
24 24 25 24 21 25 25 25 25 26 23 23 24 24 24 22 22 21 17 15 14 12 11 10 10 9 10 11 9 9 7 6 6 7 9 11 9 7 8 6 7 7 6

GFSGL_sfc_30mbdewp_015.txt.gz
Dewpoint
39 38 38 38 36 35 35 35 34 33 33 33 33 32 30 25 25 24 24 27 27 23 23 22 22 23 22 21 22 21 22 23 23 23 26 27 24 22 21 22 24 25 33
30 31 31 33 34 35 33 34 33 32 33 30 32 32 27 24 23 23 22 25 23 21 22 22 21 20 20 21 20 19 20 21 23 20 23 24 21 21 21 20 24 25 25
25 28 30 32 33 34 33 31 32 31 30 33 34 33 26 23 23 24 24 23 21 22 22 21 21 20 19 17 18 19 20 21 22 22 21 23 22 22 20 21 23 24 22
22 25 29 32 32 32 33 32 32 32 34 34 35 30 24 24 24 22 22 22 22 22 22 22 21 20 18 18 18 18 22 24 24 25 24 22 22 21 21 20 20 22 19
21 26 30 34 35 35 35 35 35 34 35 37 28 28 25 25 23 23 23 23 23 22 23 22 21 20 19 18 18 19 20 21 23 24 24 24 24 19 18 20 20 20 19
21 27 31 33 34 34 35 36 36 36 34 29 31 25 23 23 25 26 29 27 25 24 23 21 21 20 19 18 19 20 20 21 22 23 21 22 23 19 19 19 19 19 17
21 29 30 31 33 31 33 35 34 34 35 30 24 24 22 23 27 28 28 26 24 23 21 20 19 17 19 20 20 21 21 22 24 24 22 22 22 23 21 21 20 20 20
22 29 30 30 30 31 31 32 33 33 32 25 24 24 24 25 23 24 25 22 20 20 18 19 18 19 21 20 23 22 22 22 22 23 25 23 22 23 23 22 21 22 22
27 28 29 30 31 31 30 30 31 30 25 25 24 23 20 18 20 20 20 22 20 18 19 18 18 19 19 23 23 22 23 22 21 20 20 22 28 28 28 25 24 22 20
27 28 29 30 28 26 26 28 24 25 25 23 20 22 20 18 18 18 17 18 17 18 18 17 18 19 21 22 24 23 21 20 21 21 21 22 22 21 21 22 22 21 20
27 27 28 26 25 25 23 22 24 25 22 19 18 20 19 18 17 17 17 17 18 19 18 17 19 20 21 22 22 23 22 24 24 23 23 22 22 22 22 22 23 21 20
27 27 26 25 25 24 21 24 24 22 20 18 16 17 19 18 17 19 19 17 17 20 18 19 20 17 20 20 21 23 22 23 22 21 22 22 22 23 25 26 27 26 24
28 27 25 26 25 25 21 22 22 21 19 18 19 17 17 18 16 18 21 18 19 17 17 17 16 15 16 18 18 20 21 20 20 19 19 21 23 25 27 27 28 29 29
26 27 26 26 25 25 23 22 21 20 19 19 19 18 16 15 15 16 21 15 19 15 15 16 16 16 15 16 16 17 19 20 19 19 19 21 23 24 24 26 25 26 25
29 28 27 29 25 24 21 22 21 21 20 20 19 18 16 16 15 21 18 16 13 14 12 13 13 13 13 14 14 15 15 16 16 17 18 18 20 22 23 25 25 25 24
29 29 30 29 26 24 23 23 23 24 23 23 23 18 16 18 20 18 17 14 13 12 12 12 11 11 12 13 13 13 13 13 14 15 16 16 17 19 21 22 23 22 22
28 29 29 29 27 25 24 22 19 20 24 24 24 24 22 22 19 17 16 14 12 11 10 10 10 11 11 13 12 12 12 11 12 13 13 14 15 17 19 19 20 20 21
29 29 30 29 28 27 25 23 21 20 20 21 22 23 24 21 18 17 17 14 11 10 10 10 11 11 10 11 12 11 11 8 8 9 11 11 12 14 16 17 18 17 16
30 30 30 27 26 25 23 22 23 22 21 21 21 21 22 20 18 18 18 14 12 10 10 10 10 12 10 10 10 10 9 6 5 6 8 10 10 12 14 15 15 16 15
31 31 29 25 23 22 24 24 24 24 22 21 20 20 18 16 16 14 13 13 12 11 10 10 9 10 10 8 9 9 8 6 5 5 6 7 8 10 12 13 14 12 13
31 30 28 24 22 24 24 24 24 23 23 20 19 20 20 20 18 15 15 14 14 13 11 10 9 8 8 8 9 9 7 6 5 5 5 7 8 9 10 10 11 11 10
30 29 27 25 24 23 22 23 25 24 23 20 20 21 20 19 17 16 15 16 15 13 12 11 10 9 9 10 8 8 8 6 5 5 5 6 7 8 8 8 9 9 8
29 28 26 23 22 21 20 20 21 23 23 22 21 21 19 20 19 18 18 17 15 13 12 11 10 10 8 8 7 8 8 6 7 7 5 6 7 8 7 7 7 8 7
29 26 24 23 19 19 19 20 19 22 23 23 23 21 20 20 20 19 18 17 15 12 10 11 11 11 9 8 7 8 8 7 7 6 6 7 8 8 7 7 6 6 5
28 26 23 23 22 21 20 18 18 20 23 24 23 22 20 19 21 20 19 18 16 13 12 11 11 11 10 8 8 8 7 5 4 4 6 8 8 6 6 6 5 6 5
29 27 27 26 25 23 22 21 21 21 21 23 23 23 22 19 21 20 18 17 17 15 13 11 10 10 9 8 8 8 7 5 4 3 7 7 8 6 5 7 5 5 6

GFSGL_sfc_30mbdewp_018.txt.gz
Dewpoint
30 31 29 30 32 33 33 33 34 34 33 32 33 33 33 31 28 26 25 24 26 26 23 23 22 23 22 22 21 20 19 20 18 17 20 23 25 25 26 24 23 25 27
27 27 27 30 32 33 32 32 33 33 33 33 32 32 33 32 27 23 23 25 24 22 21 22 21 21 21 20 20 18 18 19 19 19 21 22 22 24 23 21 21 23 24
23 24 26 29 31 30 30 30 31 32 32 31 33 34 34 30 24 25 24 23 21 22 22 22 21 22 21 20 18 18 19 19 20 22 22 23 24 24 23 22 21 24 22
21 23 26 29 31 32 32 33 33 34 33 34 34 35 28 25 25 23 22 22 23 23 23 23 23 22 21 20 19 20 18 19 20 19 20 24 24 23 23 21 19 22 20
21 21 25 31 33 35 35 34 35 35 35 36 34 30 26 24 23 23 25 26 25 24 24 24 23 22 21 19 18 19 21 22 22 20 20 20 21 23 23 24 21 20 20
21 21 28 31 31 33 33 32 34 34 34 35 28 24 23 23 27 28 29 27 25 23 21 20 19 18 18 18 18 19 20 23 22 21 19 19 19 20 24 23 21 19 17
20 21 28 30 30 31 31 32 32 32 33 30 24 23 23 26 25 24 26 23 20 19 18 17 17 16 18 19 21 21 21 21 23 24 21 21 21 21 22 23 23 21 19
20 23 28 29 29 30 31 30 30 31 31 26 23 24 23 20 20 21 21 22 20 19 18 18 17 18 19 19 23 22 20 21 22 22 21 22 23 25 23 22 22 22 22
22 27 28 29 29 30 27 26 27 29 25 24 24 21 17 17 19 19 19 18 19 18 18 18 17 18 19 21 23 22 20 21 21 21 22 22 21 22 26 26 23 23 19
24 27 28 29 28 26 25 24 26 25 25 23 21 20 20 17 18 18 18 17 16 18 19 18 17 18 19 21 22 21 20 19 21 23 24 23 23 23 22 22 22 21 21
26 27 27 28 26 25 23 22 22 25 23 20 20 20 18 17 17 18 19 18 18 20 18 17 18 19 17 18 19 21 21 22 21 21 22 23 23 23 22 22 22 20 19
28 28 27 27 25 25 24 23 25 23 20 18 16 17 18 19 18 18 20 19 17 18 15 17 19 15 15 16 18 19 19 20 20 20 19 20 21 22 24 27 26 24 23
29 27 27 26 26 25 23 22 22 21 20 19 19 18 17 18 17 18 21 19 16 16 15 15 15 14 15 16 16 16 18 18 18 17 18 19 21 23 25 26 27 28 28
27 27 28 27 26 26 25 22 22 21 19 20 19 19 18 16 15 16 20 18 15 15 13 13 13 14 13 15 14 15 15 16 16 16 17 18 21 22 24 26 25 26 25
29 29 28 28 29 26 23 22 22 21 22 20 20 19 17 17 16 20 18 16 13 14 11 11 11 10 11 13 12 13 13 12 13 14 15 16 17 19 21 24 24 24 23
29 29 29 29 28 27 24 22 24 24 24 24 24 21 17 18 20 21 17 16 14 12 10 10 9 8 9 12 12 11 10 9 9 12 13 14 14 16 18 20 21 22 22
29 30 29 29 28 27 26 24 23 22 24 24 25 25 24 20 22 19 17 16 13 11 8 8 8 9 9 10 12 11 10 7 9 9 11 12 13 14 16 18 18 18 18
30 30 30 29 28 28 27 26 24 22 20 19 21 22 24 24 22 19 17 16 12 11 9 9 8 9 10 9 10 10 9 6 4 6 8 9 10 12 14 15 15 16 16
31 31 30 29 28 27 26 25 23 21 21 21 20 21 21 24 21 20 19 15 13 12 10 10 9 8 10 9 8 8 7 6 4 3 6 7 8 10 12 12 13 12 13
31 31 30 29 27 25 24 23 23 23 23 23 20 19 18 18 19 16 12 12 13 13 12 11 10 10 9 9 7 7 7 6 5 4 4 6 6 7 9 10 11 11 11
30 31 30 28 27 25 22 22 23 23 23 23 20 17 18 20 20 18 17 13 14 14 13 12 11 9 8 7 8 7 7 6 4 5 4 6 6 7 8 8 9 10 10
30 29 28 27 26 25 23 22 22 22 23 23 22 20 18 19 19 19 17 16 14 13 13 12 12 11 10 9 9 7 7 7 5 4 4 5 7 8 7 7 7 8 8
29 29 28 27 26 25 21 20 19 20 21 21 22 22 19 18 18 18 18 17 15 15 13 11 11 11 10 8 6 8 8 8 6 6 4 5 7 8 7 6 6 6 6
29 29 27 25 23 22 20 19 19 20 20 19 21 22 21 20 19 18 18 17 16 15 11 10 10 12 12 9 6 6 7 7 6 5 4 5 6 8 6 7 6 6 5
30 29 28 25 24 23 23 23 21 20 19 20 21 23 22 21 20 18 18 18 17 16 15 11 10 11 12 11 8 8 7 8 5 3 3 6 6 6 5 6 5 6 6
30 29 28 27 25 25 25 24 24 23 22 23 23 23 22 21 21 20 19 18 17 16 16 13 11 11 11 10 8 7 7 7 4 2 3 6 6 6 5 5 6 5 6